Location: Laguna de la Cañada del Gallo
(40.3974°N, 5.2096°W)
Time: 06:10:19
(UTC+00:00)

Cosmos 540 Rocket - Visible Passes

Search period start: 13 July 2024 00:00
Search period end: 23 July 2024 00:00
Orbit: 737 x 750 km, 74.1° (Epoch: 12 July)

Date Brightness Start Highest point End Pass type
(mag) Time Alt. Az. Time Alt. Az. Time Alt. Az.
14 Jul 5.5 04:27:44 10° SSE 04:31:59 27° E 04:36:15 10° NE visible
15 Jul 6.2 03:45:52 10° ESE 03:48:06 13° E 03:50:19 10° ENE visible
17 Jul 5.3 03:56:18 10° SSE 04:00:38 28° E 04:04:58 10° NE visible
18 Jul 6.0 03:14:15 10° ESE 03:16:43 14° E 03:19:12 10° ENE visible
19 Jul 4.0 04:08:17 10° S 04:13:21 61° ESE 04:18:26 10° NNE visible
20 Jul 5.1 03:24:51 10° SSE 03:29:16 29° E 03:33:41 10° NE visible
21 Jul 5.9 02:42:38 10° SE 02:45:20 14° E 02:48:01 10° ENE visible
21 Jul 3.6 04:21:10 10° SSW 04:26:15 63° WNW 04:31:22 10° NNE visible
22 Jul 3.8 03:37:40 14° S 03:41:59 64° ESE 03:47:05 10° NNE visible
